This is the latest recevied weather packets stored in our database for station/object OH5GWF-1. If no packets are shown the sender has not sent any weather packets the latest 10 day(s).
| Time | Temp. | Humidity | Pressure | Rain* | Wind** | Luminosity | Snow |
|---|---|---|---|---|---|---|---|
| 1777745810 | 13.89° C | 40% | 1006.7 hPa | 0 mm | - | - | - |
| 1777745400 | 14.44° C | 39% | 1006.6 hPa | 0 mm | - | - | - |
| 1777744978 | 15° C | 38% | 1006.5 hPa | 0 mm | - | - | - |
| 1777744557 | 15.56° C | 38% | 1006.5 hPa | 0 mm | - | - | - |
| 1777744135 | 16.11° C | 37% | 1006.3 hPa | 0 mm | - | - | - |
| 1777743713 | 16.67° C | 36% | 1006.3 hPa | 0 mm | - | - | - |
| 1777743290 | 16.67° C | 36% | 1006.2 hPa | 0 mm | - | - | - |
| 1777742879 | 16.67° C | 36% | 1005.9 hPa | 0 mm | - | - | - |
| 1777742458 | 16.67° C | 37% | 1005.9 hPa | 0 mm | - | - | - |
| 1777742035 | 17.22° C | 37% | 1005.8 hPa | 0 mm | - | - | - |
| 1777741612 | 17.22° C | 37% | 1005.7 hPa | 0 mm | - | - | - |
| 1777741190 | 17.22° C | 37% | 1005.6 hPa | 0 mm | - | - | - |
| 1777740779 | 17.78° C | 37% | 1005.7 hPa | 0 mm | - | - | - |
| 1777740357 | 17.78° C | 36% | 1005.6 hPa | 0 mm | - | - | - |
| 1777739933 | 18.33° C | 36% | 1005.5 hPa | 0 mm | - | - | - |
| 1777739513 | 18.33° C | 35% | 1005.5 hPa | 0 mm | - | - | - |
| 1777739091 | 18.89° C | 35% | 1005.5 hPa | 0 mm | - | - | - |
| 1777738680 | 18.89° C | 35% | 1005.5 hPa | 0 mm | - | - | - |
| 1777738257 | 18.89° C | 36% | 1005.5 hPa | 0 mm | - | - | - |
| 1777737835 | 19.44° C | 36% | 1005.5 hPa | 0 mm | - | - | - |
| 1777737412 | 19.44° C | 35% | 1005.5 hPa | 0 mm | - | - | - |
| 1777736990 | 19.44° C | 35% | 1005.6 hPa | 0 mm | - | - | - |
| 1777736579 | 20° C | 35% | 1005.6 hPa | 0 mm | - | - | - |
| 1777736156 | 20° C | 34% | 1005.6 hPa | 0 mm | - | - | - |
| 1777735734 | 20.56° C | 34% | 1005.6 hPa | 0 mm | - | - | - |
* Rain latest hour (hover to see other rain measurements)
** Current wind speed in m/s (hover to see current wind gust speed)